sat.trackr.live / text

‹ back to catalog

2024-203A

NORAD 61869 · 2024-203A

PAYLOAD ACTIVE UNKNOWN

§ Identity

Operator
Country
PRC
Launch date
2024-11-09
Launch site
JSC
Launch vehicle
Mass (kg)
RCS (m²)

External: N2YO · Heavens-Above · Gunter

§ Orbital elements

Epoch: 2026-09-22T23:25:12.442080Z

Period
93.97 min
Inclination
97.4111°
Eccentricity
0.0010006
Mean motion
15.32328244 rev/d
Perigee alt
462.0 km
Apogee alt
475.7 km
Semi-major
6,847.0 km
B*
3.2122e-4
RAAN
336.2755°
Arg perigee
346.6310°
Mean anomaly
13.4666°
Rev number
10,392

§ Raw data

2024-203A1 61869U 24203A   26265.97583845  .00009965  00000+0  32122-3 0  99922 61869  97.4111 336.2755 0010006 346.6310  13.4666 15.32328244103921

JSON: /api/v1/satellites/61869 · /tle

For live sub-satellite position, see the globe view (requires WebGL).

§ Visibility from observer

Set your observer location to see the next 7 days of passes ≥ 10°. The values pass through the URL so the page stays shareable.

No JS? Fill the form by hand. The geolocation button needs JavaScript.